Wind_Speed
40 35 41 43 38 37 35 36 38 41 33 35 30 30 30 34 35 36 32 30 32 31 29 29 27 28 30 31 31 33 35 37 39 39 42 43 45 47 49 52 52 53 57 59
42 40 46 43 42 41 40 39 40 41 34 38 37 33 35 33 40 36 35 34 33 33 30 30 29 30 31 34 37 39 40 42 44 45 45 47 50 51 52 54 56 59 61 64
45 48 49 50 49 46 47 44 44 42 39 36 37 29 36 36 35 39 38 35 35 35 33 34 35 34 34 37 39 40 43 46 48 51 54 54 56 56 56 58 61 62 64 69
54 57 52 54 51 54 50 52 49 48 43 38 38 25 32 38 40 37 45 39 37 38 38 38 39 40 40 40 40 42 44 48 53 57 59 59 60 59 60 62 64 67 71 74
54 55 54 55 57 57 53 56 54 53 49 40 39 33 28 41 39 43 48 44 42 44 44 44 43 42 44 43 44 45 47 51 53 55 58 60 62 62 64 68 74 74 75 79
58 59 57 57 59 62 55 56 54 52 50 42 49 49 30 43 46 49 49 48 44 47 47 48 48 47 47 48 48 50 53 56 57 59 62 65 67 67 72 76 76 78 80 83
61 59 57 59 60 60 60 56 57 55 54 49 50 49 42 46 51 55 55 53 51 51 51 51 50 50 51 52 53 55 58 60 63 65 66 69 74 75 72 73 77 81 87 91
65 64 62 61 64 66 61 60 60 59 57 53 53 48 47 50 57 57 56 56 55 55 55 54 53 54 55 57 58 60 63 64 65 68 70 74 73 72 74 81 88 89 91 95
74 73 68 65 67 69 63 62 66 63 58 54 48 45 47 50 58 58 57 58 59 58 56 56 58 60 61 61 63 66 67 68 69 72 74 75 76 78 83 87 93 96 100 102
78 74 69 66 68 67 64 63 67 65 62 58 49 46 45 48 58 58 58 57 58 59 59 59 62 62 63 65 68 70 71 73 75 75 75 77 81 85 91 96 101 102 103 105
77 74 70 71 66 68 67 62 66 68 64 62 56 50 52 51 55 59 61 62 63 66 66 66 65 65 67 69 70 72 73 75 77 78 79 83 89 93 97 100 102 105 109 112
78 79 74 71 68 65 64 65 65 69 70 68 67 49 59 59 59 63 64 66 67 67 67 66 65 68 70 72 75 78 80 84 85 85 86 88 91 95 98 102 107 111 116 118
82 83 80 75 72 69 69 71 69 71 74 67 69 53 62 68 65 66 68 69 70 71 70 70 71 71 74 77 80 81 83 85 91 95 97 100 103 104 102 104 98 98 101 110
89 88 82 77 78 79 76 78 78 76 72 72 68 68 70 72 70 71 72 72 72 74 77 78 78 78 78 80 84 85 88 91 96 101 103 105 108 110 111 113 111 113 112 111
89 88 87 83 83 86 82 78 81 83 76 82 67 73 74 75 76 75 75 75 77 77 79 82 84 84 85 87 86 89 93 97 99 100 102 100 100 97 98 99 101 98 111 113
94 95 93 88 91 90 93 87 83 81 79 80 77 71 79 83 81 80 81 81 83 85 83 83 84 85 85 88 90 95 92 92 93 95 93 92 94 96 100 101 105 116 120 122
101 100 100 95 98 99 103 89 94 89 82 80 83 73 86 87 86 86 86 86 86 87 87 87 87 87 86 90 93 89 90 92 92 94 95 96 100 101 106 109 117 125 127 129
106 107 104 99 101 105 90 90 90 90 88 85 81 82 88 91 91 91 88 89 88 89 88 89 92 90 95 99 96 95 93 94 99 101 102 103 105 109 113 117 123 130 132 135
99 94 95 98 100 98 91 89 92 95 87 93 91 83 84 89 94 90 92 93 92 92 93 92 91 95 97 100 97 97 100 105 104 106 109 111 113 116 121 126 131 136 139 140
104 100 97 96 99 101 91 96 96 98 92 91 91 89 92 92 94 94 97 97 96 100 99 99 97 102 102 104 106 103 111 107 110 115 117 117 121 126 130 133 138 143 147 145
106 105 104 106 107 105 100 100 99 104 95 93 90 96 98 94 96 98 99 100 102 102 102 105 103 105 111 113 109 113 114 114 118 122 123 125 130 133 137 139 143 146 150 151
109 109 110 115 117 118 109 107 111 101 97 96 99 98 96 96 102 104 103 106 107 110 106 108 113 117 117 117 114 116 118 120 125 130 128 131 135 139 140 143 147 151 153 154
123 122 120 121 119 114 113 109 107 110 104 99 99 97 95 99 102 107 111 113 116 116 108 114 122 125 124 119 120 120 122 127 133 130 132 138 139 141 145 146 150 152 160 155
122 120 121 123 119 117 115 114 106 108 103 106 108 103 105 107 111 114 116 119 121 115 121 130 130 125 121 123 125 127 130 134 137 137 140 141 146 147 150 152 153 157 161 145
125 123 120 119 117 115 113 115 115 111 112 111 111 111 110 116 119 118 118 122 124 129 129 124 130 126 128 126 129 133 134 140 143 145 145 150 152 157 157 156 163 157 143 135
128 126 128 127 124 122 119 118 119 118 118 116 119 122 122 123 124 127 129 133 132 130 129 133 133 132 130 135 138 139 143 145 147 148 151 157 157 159 163 163 155 136 136 134
Wind_Direction
264 265 262 260 264 264 261 259 260 259 253 255 247 251 248 258 253 254 255 255 257 260 265 271 278 284 287 288 285 287 290 294 295 294 298 303 306 305 304 305 301 303 306 305
258 260 263 265 263 264 263 262 261 264 256 257 254 255 259 253 259 255 255 255 258 262 266 272 278 282 289 293 294 294 294 296 299 298 297 297 303 299 302 299 297 299 303 300
252 259 263 263 260 260 263 265 264 263 260 258 258 260 262 257 251 259 254 256 258 264 269 272 275 278 282 284 286 289 293 296 299 297 298 295 291 294 295 296 295 294 293 292
251 261 257 263 263 258 258 264 267 268 263 258 264 251 268 262 258 255 261 255 260 265 268 271 273 275 277 280 284 286 288 292 295 296 296 294 294 292 296 296 291 289 290 291
258 259 260 258 261 262 261 263 266 270 272 267 271 255 260 269 264 263 264 261 262 267 270 272 273 274 275 279 283 286 287 288 291 293 294 295 295 292 291 289 289 291 287 286
257 255 259 262 262 263 265 266 268 269 272 273 273 269 252 263 269 269 269 273 273 274 276 276 276 277 277 278 281 284 288 290 289 289 291 291 290 288 287 288 287 283 283 285
255 257 256 260 260 262 262 267 269 269 268 266 266 271 266 260 264 268 270 273 275 277 278 277 279 279 279 281 282 283 285 286 288 289 288 287 286 287 287 278 276 280 284 287
252 252 255 258 261 262 266 267 271 268 268 268 270 273 268 264 266 267 270 273 275 275 275 274 277 278 279 280 284 286 286 288 289 290 290 288 283 278 277 277 281 283 284 286
257 257 257 259 261 265 267 270 267 272 272 272 270 268 267 266 265 266 268 270 271 273 274 274 275 276 278 282 283 284 286 287 287 287 285 281 279 281 282 282 283 285 286 286
259 259 261 263 267 271 272 269 270 274 274 274 276 269 266 261 266 269 270 271 272 274 274 275 276 279 281 282 282 283 284 283 282 282 280 278 278 280 281 283 284 283 284 286
260 261 260 261 264 267 266 267 269 272 273 274 271 269 270 271 272 273 273 274 275 276 279 283 284 282 282 282 284 285 284 283 282 282 281 280 280 281 282 282 283 285 286 287
256 259 262 263 262 266 270 268 269 271 269 269 272 273 272 272 271 269 271 272 273 276 278 280 280 280 282 283 284 285 283 281 280 281 281 282 283 282 284 286 287 288 287 286
255 257 258 261 266 266 266 265 265 266 268 273 273 278 270 271 270 268 271 273 274 276 277 277 279 282 283 284 284 286 285 285 285 285 286 286 286 286 286 289 291 295 291 286
254 256 257 260 261 260 262 264 267 267 270 272 275 272 274 273 272 273 274 275 275 274 274 278 280 281 282 282 283 284 285 286 287 287 287 287 287 288 286 286 286 287 294 303
253 258 258 255 259 261 261 261 264 268 269 271 273 275 272 272 272 272 272 274 274 276 278 280 282 284 283 283 284 287 287 287 287 287 286 287 286 289 289 290 295 299 305 304
255 257 259 257 258 261 263 260 263 266 269 271 269 270 272 270 272 274 274 274 273 275 279 281 281 282 284 286 287 288 287 285 286 283 289 290 293 296 297 301 306 309 308 307
256 257 259 259 260 262 261 266 268 269 269 271 270 270 269 273 273 274 273 275 277 278 281 283 283 285 289 288 290 289 288 288 289 290 292 295 297 300 303 307 308 308 308 308
256 259 261 258 258 260 267 267 269 272 270 271 276 272 270 273 274 274 273 275 278 280 280 284 288 288 292 292 290 292 291 293 294 295 297 298 301 306 307 306 307 308 310 311
258 262 260 260 260 262 262 267 270 269 269 275 281 273 274 273 272 274 275 277 279 282 286 287 287 292 293 294 292 295 298 298 296 297 300 301 306 307 306 304 307 310 311 310
266 268 262 260 262 265 264 266 265 267 271 276 274 271 274 271 271 272 275 278 279 283 285 286 285 291 294 295 294 295 295 299 300 302 305 307 307 305 306 305 305 306 309 310
260 261 257 258 263 265 266 267 266 269 274 271 269 270 271 270 270 273 275 276 280 282 284 286 288 290 293 293 293 294 299 301 303 306 305 304 304 304 304 304 305 308 309 309
256 255 256 258 260 265 267 266 270 269 268 269 269 271 269 270 270 271 272 275 281 284 286 285 287 291 293 293 295 296 299 302 303 302 304 302 300 302 303 304 306 307 309 310
256 257 258 259 263 266 268 268 269 271 274 272 272 274 268 267 270 272 271 274 280 281 280 282 286 289 290 293 297 298 300 300 301 301 301 301 302 303 304 305 306 307 308 308
254 255 256 260 265 267 267 270 268 272 270 269 271 274 270 270 271 272 272 275 278 282 283 285 287 290 293 297 298 297 296 296 299 300 301 302 304 304 306 305 306 306 307 306
255 257 259 260 262 263 262 261 268 268 270 269 271 273 270 272 275 276 277 278 280 283 285 288 292 290 290 293 294 294 295 295 298 300 301 303 304 304 304 305 305 306 305 304
254 255 258 260 262 261 262 262 265 266 267 271 271 274 276 276 276 277 279 281 283 284 287 288 290 291 291 290 293 294 295 298 297 299 301 302 302 303 304 304 304 303 304 304
Height
10731 10734 10729 10729 10734 10733 10735 10735 10735 10734 10744 10742 10745 10745 10747 10745 10745 10744 10747 10748 10748 10748 10749 10749 10749 10748 10747 10747 10746 10745 10743 10742 10740 10739 10736 10734 10733 10732 10730 10728 10725 10721 10719 10715
10722 10724 10719 10723 10724 10725 10726 10727 10727 10728 10736 10735 10737 10740 10740 10741 10736 10740 10739 10740 10740 10740 10741 10741 10741 10740 10739 10738 10736 10734 10733 10732 10730 10729 10729 10727 10725 10722 10719 10716 10713 10709 10706 10702
10712 10712 10711 10711 10713 10715 10716 10719 10718 10721 10724 10727 10730 10736 10732 10732 10733 10728 10731 10731 10732 10731 10732 10732 10732 10732 10731 10730 10728 10727 10725 10724 10722 10721 10720 10718 10715 10711 10707 10703 10700 10695 10692 10687
10700 10698 10702 10699 10704 10701 10707 10706 10709 10709 10715 10720 10722 10732 10726 10720 10724 10724 10715 10723 10724 10722 10722 10723 10723 10723 10722 10721 10720 10719 10717 10716 10714 10711 10709 10706 10703 10699 10695 10691 10686 10682 10678 10674
10690 10688 10690 10691 10687 10690 10696 10695 10698 10699 10704 10713 10714 10719 10723 10711 10712 10708 10707 10712 10714 10713 10713 10713 10713 10712 10711 10710 10710 10708 10706 10705 10703 10700 10697 10693 10690 10686 10682 10677 10672 10669 10664 10658
10672 10675 10678 10678 10677 10676 10685 10684 10687 10690 10692 10704 10699 10699 10720 10704 10700 10697 10697 10698 10702 10702 10702 10701 10700 10700 10699 10698 10697 10695 10694 10692 10689 10687 10683 10679 10675 10671 10666 10661 10655 10649 10645 10641
10653 10660 10665 10664 10664 10664 10668 10673 10674 10679 10681 10688 10685 10691 10701 10695 10689 10683 10684 10685 10688 10688 10688 10687 10687 10686 10685 10684 10683 10682 10680 10677 10674 10671 10668 10663 10659 10654 10648 10644 10638 10632 10628 10625
10641 10644 10649 10654 10650 10649 10659 10660 10661 10660 10668 10675 10677 10684 10684 10682 10674 10674 10673 10673 10674 10674 10674 10674 10674 10673 10671 10670 10669 10667 10664 10662 10658 10654 10651 10646 10641 10637 10634 10629 10624 10616 10610 10604
10625 10630 10637 10639 10637 10638 10652 10651 10639 10647 10653 10660 10668 10671 10671 10670 10659 10661 10661 10659 10658 10658 10660 10661 10660 10658 10657 10657 10654 10651 10649 10646 10642 10638 10635 10631 10628 10624 10617 10611 10603 10596 10589 10582
10609 10616 10626 10630 10626 10628 10636 10636 10630 10633 10638 10644 10656 10658 10659 10654 10647 10646 10645 10645 10644 10643 10642 10644 10644 10644 10644 10642 10639 10635 10633 10629 10625 10622 10618 10614 10608 10602 10595 10589 10582 10574 10567 10560
10595 10600 10610 10611 10619 10611 10616 10624 10620 10618 10624 10627 10637 10647 10645 10644 10639 10634 10631 10629 10628 10626 10626 10628 10627 10627 10626 10624 10621 10619 10615 10611 10607 10603 10599 10593 10586 10581 10575 10568 10560 10553 10545 10535
10579 10578 10593 10598 10600 10601 10601 10605 10605 10602 10606 10611 10617 10643 10630 10627 10626 10620 10617 10615 10613 10614 10614 10613 10611 10609 10608 10607 10604 10600 10597 10592 10588 10583 10578 10572 10565 10557 10552 10543 10536 10528 10519 10510
10563 10564 10571 10580 10588 10591 10587 10583 10585 10583 10589 10607 10600 10627 10610 10602 10607 10606 10602 10601 10601 10601 10599 10596 10594 10594 10591 10589 10584 10582 10578 10572 10568 10562 10557 10549 10542 10534 10528 10520 10510 10502 10491 10479
10543 10547 10560 10568 10565 10564 10569 10568 10568 10569 10580 10581 10594 10593 10592 10587 10590 10588 10587 10587 10585 10583 10581 10580 10579 10577 10575 10570 10565 10563 10558 10551 10545 10538 10532 10524 10516 10510 10501 10492 10483 10475 10462 10447
10527 10530 10536 10551 10545 10541 10549 10555 10553 10553 10570 10558 10586 10575 10568 10567 10565 10568 10571 10570 10567 10564 10563 10560 10558 10557 10554 10549 10545 10541 10536 10529 10522 10513 10505 10498 10490 10483 10475 10465 10455 10444 10431 10420
10508 10512 10513 10527 10525 10521 10519 10533 10541 10546 10545 10545 10553 10567 10548 10541 10545 10550 10550 10549 10547 10545 10543 10540 10537 10535 10532 10528 10523 10518 10512 10505 10497 10489 10479 10472 10464 10455 10449 10437 10425 10412 10402 10391
10486 10490 10493 10505 10499 10498 10493 10532 10516 10524 10529 10528 10529 10548 10524 10525 10528 10528 10527 10527 10525 10522 10520 10517 10514 10512 10509 10503 10497 10491 10486 10479 10470 10463 10453 10446 10438 10428 10419 10405 10395 10385 10371 10357
10466 10471 10469 10480 10475 10467 10508 10501 10499 10496 10506 10505 10509 10514 10508 10506 10502 10501 10504 10503 10502 10498 10497 10497 10492 10487 10482 10477 10468 10463 10457 10453 10442 10434 10425 10416 10410 10399 10386 10375 10362 10351 10336 10322
10444 10449 10447 10448 10454 10461 10480 10486 10479 10469 10491 10481 10484 10487 10486 10480 10476 10485 10482 10479 10476 10474 10474 10470 10465 10462 10455 10450 10441 10436 10429 10423 10414 10405 10397 10389 10378 10366 10356 10344 10330 10317 10306 10294
10420 10425 10427 10428 10429 10435 10465 10457 10456 10450 10468 10466 10456 10460 10457 10456 10458 10461 10457 10457 10456 10451 10448 10444 10440 10436 10429 10424 10418 10411 10403 10394 10385 10377 10368 10356 10346 10339 10325 10313 10302 10290 10277 10262
10397 10399 10402 10405 10403 10411 10429 10431 10429 10426 10449 10442 10438 10436 10435 10437 10439 10437 10433 10431 10431 10427 10423 10418 10413 10409 10406 10400 10391 10384 10374 10364 10355 10347 10338 10328 10318 10308 10298 10286 10274 10259 10245 10231
10374 10375 10381 10382 10379 10385 10406 10403 10399 10402 10410 10415 10415 10414 10414 10414 10415 10414 10411 10407 10404 10401 10396 10391 10387 10383 10377 10371 10363 10355 10345 10334 10329 10322 10310 10301 10291 10280 10268 10254 10240 10227 10211 10195
10344 10350 10354 10355 10360 10363 10373 10373 10374 10378 10382 10386 10387 10390 10390 10389 10389 10389 10386 10385 10381 10377 10371 10364 10360 10353 10348 10342 10335 10326 10315 10310 10302 10294 10283 10271 10260 10248 10235 10222 10209 10194 10179 10162
10311 10323 10326 10330 10338 10342 10344 10346 10345 10349 10353 10355 10360 10362 10363 10362 10361 10360 10358 10356 10351 10346 10343 10337 10330 10321 10313 10309 10304 10298 10288 10280 10272 10262 10252 10239 10227 10215 10203 10190 10176 10162 10149 10131
10292 10295 10303 10305 10311 10314 10318 10320 10320 10324 10325 10326 10329 10332 10332 10331 10330 10328 10325 10322 10320 10316 10311 10304 10297 10290 10286 10283 10276 10269 10260 10250 10241 10232 10220 10207 10194 10182 10170 10156 10145 10128 10114 10098
10266 10271 10273 10280 10283 10290 10295 10295 10296 10298 10297 10299 10300 10300 10299 10297 10295 10293 10291 10289 10287 10284 10279 10274 10267 10261 10254 10250 10244 10236 10226 10217 10208 10198 10186 10176 10163 10149 10136 10123 10109 10093 10081 10066